Weather History for Erie, PA

Change the Weather History Date:

Tuesday, January 21, 2014

  Actual Average Record
Temperature  
Mean Temperature 10 °F 27 °F  
Max Temperature 16 °F 33 °F 72 °F (1906)
Min Temperature 4 °F 20 °F -16 °F (1985)
Degree Days  
Heating Degree Days 55 38  
Month to date heating degree days 837 790  
Since 1 July heating degree days 3079 2958  
Cooling Degree Days 0 0  
Month to date cooling degree days 0 0  
Year to date cooling degree days 0 0  
Moisture  
Dew Point 1 °F    
Average Humidity 66    
Maximum Humidity 73    
Minimum Humidity 58    
Precipitation  
Precipitation T in 0.09 in 1.30 in (1959)
Month to date precipitation 2.20 2.11  
Year to date precipitation 2.20 2.11  
Snow  
Snow 0.30 in 1.00 in - ()
Month to date snowfall 20.9 21.1  
Since 1 July snowfall 84.5 57.3  
Snow Depth 1.00 in    
Sea Level Pressure  
Sea Level Pressure 30.08 in    
Wind  
Wind Speed 11 mph (NE)    
Max Wind Speed 22 mph    
Max Gust Speed 26 mph    
Visibility 7 miles    
Events Snow    
T = Trace of Precipitation, MM = Missing Value Source: NWS Daily Summary

Daily Weather History Graph

Daily Weather History Graph

Search for Another Location

Airport:

Trip Planner

Search our weather history database for the weather conditions in past years. The results will help you decide how hot, cold, wet, or windy it might be!

Date:

Astronomy

Jan. 21, 2014 Rise Set
Actual Time 7:43 AM EST 5:21 PM EST
Civil Twilight 7:12 AM EST 5:51 PM EST
Nautical Twilight 6:38 AM EST 6:26 PM EST
Astronomical Twilight 6:05 AM EST 6:59 PM EST
Moon 10:59 PM EST (1/21) 10:05 AM EST (1/21)
Length of Visible Light 10h 39m
Length of Day
9h 38m
Waning Gibbous, 75% of the Moon is Illuminated
Jan 21
Waning Gibbous
Jan 24
Last Quarter
Jan 30
New
Feb 6
First Quarter
Feb 14
Full

Hourly Weather History & Observations

Time (EST) Temp. Windchill Dew Point Humidity Pressure Visibility Wind Dir Wind Speed Gust Speed Precip Events Conditions
12:07 AM 15.8 °F 4.2 °F 8.6 °F 73% 30.00 in 9.0 mi NE 9.2 mph - 0.00 in Snow Light Snow
12:51 AM 15.1 °F 3.3 °F 7.0 °F 70% 30.03 in 8.0 mi NNE 9.2 mph - 0.00 in Snow Light Snow
1:29 AM 15.8 °F 2.7 °F 5.0 °F 62% 29.99 in 8.0 mi NNE 11.5 mph - 0.00 in Snow Light Snow
1:51 AM 14.0 °F 1.2 °F 7.0 °F 74% 30.02 in 6.0 mi NE 10.4 mph 19.6 mph 0.00 in Snow Light Snow
2:17 AM 14.0 °F 0.5 °F 5.0 °F 67% 29.99 in 10.0 mi NNE 11.5 mph - 0.00 in   Overcast
2:37 AM 12.2 °F -2.5 °F 3.2 °F 67% 29.99 in 10.0 mi NE 12.7 mph - 0.00 in   Overcast
2:51 AM 12.9 °F -0.9 °F 3.0 °F 65% 30.04 in 10.0 mi NE 11.5 mph - 0.00 in   Overcast
3:51 AM 12.9 °F -0.9 °F 1.9 °F 62% 30.04 in 10.0 mi NE 11.5 mph - N/A   Overcast
4:51 AM 12.9 °F 2.6 °F -0.0 °F 56% 30.04 in 10.0 mi NE 6.9 mph - N/A   Overcast
5:51 AM 12.9 °F 0.7 °F 1.9 °F 62% 30.02 in 10.0 mi NNE 9.2 mph - N/A   Overcast
6:34 AM 12.2 °F -0.2 °F 5.0 °F 73% 29.99 in 4.0 mi NE 9.2 mph - 0.00 in Snow Light Snow
6:51 AM 12.0 °F -2.0 °F 6.1 °F 77% 30.05 in 2.0 mi NE 11.5 mph - 0.00 in Snow Light Snow
7:03 AM 12.2 °F -4.3 °F 6.8 °F 79% 30.01 in 1.5 mi NE 16.1 mph 23.0 mph 0.00 in Snow Light Snow
7:10 AM 12.2 °F -4.3 °F 5.0 °F 73% 30.01 in 3.0 mi NE 16.1 mph - 0.00 in Snow Light Snow
7:51 AM 10.9 °F -4.7 °F 3.9 °F 73% 30.07 in 2.5 mi ENE 13.8 mph - 0.00 in Snow Light Snow
8:06 AM 10.4 °F -6.6 °F 3.2 °F 73% 30.03 in 3.0 mi ENE 16.1 mph - 0.00 in Snow Light Snow
8:51 AM 10.0 °F -5.9 °F 3.0 °F 73% 30.10 in 9.0 mi ENE 13.8 mph - 0.00 in   Overcast
9:51 AM 10.9 °F -4.1 °F 1.9 °F 67% 30.11 in 9.0 mi NE 12.7 mph - N/A   Scattered Clouds
9:58 AM 10.4 °F -5.4 °F 1.4 °F 67% 30.06 in 7.0 mi NE 13.8 mph - 0.00 in Snow Light Snow
10:51 AM 10.0 °F -5.2 °F 3.0 °F 73% 30.12 in 3.0 mi NE 12.7 mph 20.7 mph 0.00 in Snow Light Snow
11:18 AM 10.4 °F -6.6 °F -0.4 °F 62% 30.07 in 10.0 mi NE 16.1 mph 23.0 mph 0.00 in   Mostly Cloudy
11:39 AM 10.4 °F -7.2 °F 3.2 °F 73% 30.07 in 2.0 mi NNE 17.3 mph 26.5 mph 0.00 in Snow Light Snow
11:43 AM 10.4 °F -5.4 °F 3.2 °F 73% 30.07 in 1.2 mi NNE 13.8 mph 24.2 mph 0.00 in Snow Light Snow
11:47 AM 10.4 °F -7.2 °F 3.2 °F 73% 30.07 in 4.0 mi NE 17.3 mph 24.2 mph 0.00 in Snow Light Snow
11:51 AM 10.0 °F -7.1 °F 1.9 °F 70% 30.11 in 4.0 mi NE 16.1 mph - 0.00 in   Overcast
12:51 PM 9.0 °F -9.0 °F 1.9 °F 73% 30.11 in 6.0 mi NNE 17.3 mph 23.0 mph 0.00 in Snow Light Snow
1:51 PM 9.0 °F -8.5 °F -0.0 °F 67% 30.10 in 6.0 mi NNE 16.1 mph - 0.00 in Snow Light Snow
2:51 PM 9.0 °F -5.1 °F -0.9 °F 64% 30.10 in 10.0 mi North 10.4 mph - 0.00 in   Overcast
3:51 PM 9.0 °F -6.6 °F -0.9 °F 64% 30.11 in 10.0 mi NNE 12.7 mph 17.3 mph N/A   Overcast
4:51 PM 8.1 °F -6.2 °F -2.9 °F 61% 30.13 in 10.0 mi North 10.4 mph - N/A   Mostly Cloudy
5:51 PM 7.0 °F -6.6 °F -4.0 °F 61% 30.14 in 10.0 mi NNE 9.2 mph - N/A   Mostly Cloudy
6:51 PM 7.0 °F -5.7 °F -2.9 °F 64% 30.15 in 10.0 mi North 8.1 mph - 0.00 in Snow Light Snow
7:51 PM 6.1 °F -7.8 °F -4.0 °F 63% 30.16 in 10.0 mi NNE 9.2 mph - 0.00 in   Overcast
8:25 PM 6.8 °F -8.6 °F -4.0 °F 61% 30.11 in 9.0 mi NE 11.5 mph - N/A   Overcast
8:42 PM 6.8 °F -6.9 °F -4.0 °F 61% 30.12 in 10.0 mi NNE 9.2 mph - N/A   Overcast
8:51 PM 5.0 °F -10.8 °F -5.1 °F 63% 30.17 in 10.0 mi NNE 11.5 mph - N/A   Overcast
9:51 PM 5.0 °F -9.1 °F -6.0 °F 61% 30.17 in 10.0 mi NNE 9.2 mph - N/A   Overcast
10:51 PM 5.0 °F -9.1 °F -6.0 °F 61% 30.17 in 10.0 mi NNE 9.2 mph - N/A   Overcast
11:51 PM 5.0 °F -8.1 °F -4.0 °F 66% 30.16 in 8.0 mi NE 8.1 mph - 0.00 in   Overcast